[[{"header":{"parameterUnit":"m.s-1","parameterCategory":1,"la1":30.2991,"la2":30.254,"lo1":-89.0895,"lo2":-89.0444,"dy":0.0017,"dx":0.0017,"nx":28,"ny":28,"refTime":"2025-03-03T03:00:00:Z","depth":0,"parameterNumber":2,"parameterNumberName":"U-component_of_WINDS"},"data":[0,0,0,0,0,0,0,0,0,0,0,0,0,0,0,0,0,0,0,0,0,0,0,0,0,0,0,0,0,0,0,0,0,0,0,0,0,0,0,0,0,0,0,0,0,0,0,0,0,0,0,0,0,0,0,0,0,0,-4.3424,-4.3424,0,-4.3437,-4.3438,-4.3438,-4.3271,-4.3266,-4.3262,-4.3258,-4.3274,-4.3278,-4.3283,0,0,0,0,0,0,0,0,0,0,0,0,0,-4.3256,-4.326,-4.3424,-4.3424,-4.3424,-4.3437,-4.3438,-4.3438,-4.3272,-4.3266,-4.3261,-4.3255,-4.3272,-4.3278,-4.3283,0,0,0,0,0,0,0,0,0,0,0,0,0,-4.3305,-4.3261,-4.3424,-4.3343,-4.3336,-4.3437,-4.3438,-4.3438,-4.3273,-4.3266,-4.3259,-4.3253,-4.327,-4.3277,-4.3284,-4.3465,0,0,-4.3306,-4.3309,0,0,0,0,0,0,0,0,-4.3303,-4.3312,-4.3355,-4.3349,-4.3341,-4.3345,-4.3384,-4.3447,-4.3275,-4.3297,-4.3257,-4.325,-4.3303,-4.3307,-4.3325,-4.3465,-4.3466,-4.3306,-4.331,-4.3313,-4.3315,0,0,0,0,0,0,0,-4.33,-4.331,-4.3429,-4.3356,-4.3347,-4.3306,-4.3306,-4.3395,-4.3339,-4.3295,-4.3282,-4.3286,-4.3298,-4.3318,-4.3324,-4.3466,-4.3306,-4.3312,-4.3317,-4.3319,-4.3755,-4.3762,0,0,0,0,0,0,-4.3307,-4.3308,-4.3429,-4.343,-4.3305,-4.3315,-4.3314,-4.3351,-4.3337,-4.3328,-4.3292,-4.3278,-4.331,-4.3316,-4.3324,-4.3534,-4.3313,-4.332,-4.3324,-4.3747,-4.3756,-4.3764,0,0,0,0,0,0,-4.3304,-4.3319,-4.3428,-4.3366,-4.3377,-4.3325,-4.3368,-4.3355,-4.3375,-4.3335,-4.3324,-4.3323,-4.3305,-4.3314,-4.343,-4.3532,-4.3323,-4.333,-4.3739,-4.375,-4.376,-4.3956,0,0,0,0,0,0,-4.33,-4.3319,-4.3387,-4.3369,-4.3381,-4.3535,-4.3374,-4.336,-4.3387,-4.3369,-4.3361,-4.3353,-4.33,-4.3421,-4.3438,-4.3538,-4.3335,-4.3729,-4.3744,-4.3757,-4.394,-4.3972,-4.4,0,0,0,0,0,-4.3294,-4.3442,-4.3391,-4.3407,-4.3464,-4.3541,-4.3548,-4.3483,-4.3396,-4.3464,-4.3438,-4.3354,-4.3518,-4.3434,-4.3452,-4.3556,-4.3723,-4.374,-4.3756,-4.3927,-4.3966,-4.3999,0,0,0,0,0,0,-4.3475,-4.3438,-4.3381,-4.3527,-4.3539,-4.3513,-4.3596,-4.3526,-4.3563,-4.3545,-4.3463,-4.3463,-4.3593,-4.3585,-4.3493,-4.3729,-4.3605,-4.3626,-4.3729,-4.3766,-4.3795,-4.3795,-4.3341,0,0,0,0,0,-4.3531,-4.3596,-4.3561,-4.3693,-4.3702,-4.3649,-4.368,-4.3628,-4.3637,-4.3641,-4.3624,-4.3636,-4.369,-4.3727,-4.3775,-4.3938,-4.3934,-4.4018,-4.4048,-4.4072,-4.4092,-4.4177,-4.4214,-4.3819,-4.3818,-4.3818,0,0,-4.3649,-4.3637,-4.3683,-4.3729,-4.3732,-4.3801,-4.3654,-4.3734,-4.3785,-4.3653,-4.3762,-4.375,-4.3758,-4.3899,-4.396,-4.3897,-4.42,-4.4094,-4.4114,-4.4119,-4.4198,-4.4235,-4.4269,-4.383,-4.3828,-4.3826,0,0,-4.3899,-4.3897,-4.4007,-4.4012,-4.4017,-4.3981,-4.4008,-4.3992,-4.3979,-4.4087,-4.399,-4.4049,-4.4144,-4.4154,-4.4171,-4.4425,-4.4349,-4.4443,-4.4599,-4.4683,-4.4714,-4.4741,-4.4832,-4.4865,-4.4462,-4.4463,-4.4463,0,-4.4046,-4.4146,-4.4072,-4.4158,-4.4181,-4.4065,-4.4175,-4.4184,-4.4206,-4.4225,-4.4154,-4.427,-4.4267,-4.4408,-4.447,-4.4488,-4.4516,-4.4444,-4.4715,-4.4742,-4.4766,-4.4852,-4.4886,-4.4474,-4.4473,-4.4471,-4.447,0,-4.4325,-4.4396,-4.4484,-4.4507,-4.454,-4.4638,-4.458,-4.4622,-4.4568,-4.4539,-4.465,-4.4643,-4.4687,-4.4716,-4.4665,-4.4851,-4.4811,-4.4729,-4.4603,-4.4817,-4.4896,-4.4928,-4.449,-4.4486,-4.4483,-4.448,0,0,-4.469,-4.467,-4.4703,-4.4712,-4.4709,-4.4763,-4.4856,-4.4898,-4.4936,-4.4955,-4.5031,-4.5114,-4.5038,-4.5058,-4.5006,-4.508,-4.5282,-4.4989,-4.4987,-4.5044,-4.5486,-4.5548,-4.5587,-4.5231,-4.5237,-4.5241,-4.5485,0,-4.4933,-4.509,-4.5027,-4.5189,-4.5254,-4.5144,-4.5225,-4.5233,-4.5209,-4.526,-4.5233,-4.5293,-4.5188,-4.52,-4.5268,-4.5243,-4.5369,-4.5224,-4.5302,-4.5305,-4.5303,-4.5628,-4.5694,-4.5924,-4.5516,-4.5521,-4.5525,0,-4.5239,-4.5269,-4.5438,-4.5423,-4.5448,-4.5522,-4.5555,-4.5606,-4.5612,-4.5589,-4.5612,-4.5544,-4.5634,-4.5508,-4.5632,-4.5535,-4.5563,-4.5555,-4.5563,-4.5568,-4.5428,-4.5642,-4.5996,-4.6031,-4.5572,-4.5569,-4.5565,0,-4.5488,-4.5571,-4.5683,-4.5693,-4.5679,-4.5734,-4.573,-4.5729,-4.5759,-4.5788,-4.5806,-4.5847,-4.5869,-4.5902,-4.5846,-4.576,-4.5979,-4.5848,-4.5962,-4.5964,-4.6014,-4.6012,-4.6378,-4.6032,-4.6031,-4.6031,-4.603,0,-4.5767,-4.5875,-4.5794,-4.5864,-4.5981,-4.5907,-4.6026,-4.601,-4.601,-4.6075,-4.5982,-4.6045,-4.5967,-4.6023,-4.598,-4.6089,-4.61,-4.6085,-4.6072,-4.6093,-4.6095,-4.611,-4.6093,-4.604,-4.6038,-4.6036,-4.6035,0,-4.6065,-4.6016,-4.613,-4.6107,-4.6104,-4.6192,-4.6172,-4.6235,-4.6203,-4.6286,-4.6301,-4.6253,-4.6313,-4.6261,-4.632,-4.6291,-4.6436,-4.64,-4.6434,-4.6424,-4.6542,-4.6532,-4.6931,-4.6979,-4.6603,-4.6606,-4.6609,0,-4.6247,-4.6327,-4.6312,-4.6348,-4.635,-4.641,-4.6438,-4.6369,-4.6403,-4.6416,-4.6478,-4.653,-4.6568,-4.6669,-4.664,-4.6684,-4.6649,-4.6786,-4.6655,-4.6674,-4.6651,-4.6647,-4.6655,-4.6813,-4.6817,-4.6821,-4.6824,0,-4.6574,-4.6545,-4.659,-4.6627,-4.6664,-4.6691,-4.6709,-4.6744,-4.6672,-4.6716,-4.6776,-4.6805,-4.6864,-4.6918,-4.6952,-4.6949,-4.6876,-4.6865,-4.6894,-4.6916,-4.6933,-4.6925,-4.6507,-4.6856,-4.6853,-4.6851,-4.6849,-4.6848,-4.6819,-4.6885,-4.6885,-4.6938,-4.6945,-4.6964,-4.7022,-4.6998,-4.7047,-4.7088,-4.7044,-4.7118,-4.7121,-4.716,-4.7166,-4.7222,-4.7165,-4.7207,-4.7218,-4.7229,-4.7246,-4.6924,-4.7228,-4.7227,-4.7226,-4.7225,-4.7225,0,-4.7141,-4.7135,-4.7185,-4.7214,-4.7256,-4.7182,-4.7199,-4.7239,-4.7304,-4.7314,-4.7353,-4.7422,-4.7473,-4.7448,-4.7492,-4.7542,-4.751,-4.7556,-4.7552,-4.7552,-4.7295,-4.7265,-4.7582,-4.7582,-4.7582,-4.7582,-4.7582,-4.7581,-4.7314,-4.7422,-4.7393,-4.7503,-4.7496,-4.7567,-4.7583,-4.7601,-4.7607,-4.7689,-4.773,-4.7713,-4.7708,-4.7752,-4.7795,-4.7786,-4.7807,-4.7867,-4.7846,-4.7606,-4.7571,-4.7537,-4.7509,-4.7872,-4.7872,-4.8099,-4.8101,-4.8102]},{"header":{"parameterUnit":"m.s-1","parameterCategory":1,"la1":30.2991,"la2":30.254,"lo1":-89.0895,"lo2":-89.0444,"dy":0.0017,"dx":0.0017,"nx":28,"ny":28,"refTime":"2025-03-03T03:00:00:Z","depth":0,"parameterNumber":3,"parameterNumberName":"V-component_of_WINDS"},"data":[0,0,0,0,0,0,0,0,0,0,0,0,0,0,0,0,0,0,0,0,0,0,0,0,0,0,0,0,0,0,0,0,0,0,0,0,0,0,0,0,0,0,0,0,0,0,0,0,0,0,0,0,0,0,0,0,0,0,-1.091,-1.0911,0,-1.0934,-1.0935,-1.0935,-1.0949,-1.0949,-1.0949,-1.0949,-1.0972,-1.0972,-1.0973,0,0,0,0,0,0,0,0,0,0,0,0,0,-1.0874,-1.0874,-1.091,-1.0911,-1.0911,-1.0934,-1.0935,-1.0935,-1.0949,-1.0949,-1.0949,-1.0949,-1.0972,-1.0972,-1.0973,0,0,0,0,0,0,0,0,0,0,0,0,0,-1.0893,-1.0874,-1.091,-1.0921,-1.0922,-1.0934,-1.0935,-1.0935,-1.0949,-1.0949,-1.0949,-1.0949,-1.0972,-1.0972,-1.0973,-1.0977,0,0,-1.0976,-1.0976,0,0,0,0,0,0,0,0,-1.0892,-1.0894,-1.0919,-1.092,-1.0921,-1.0939,-1.093,-1.0949,-1.0948,-1.0938,-1.0949,-1.0949,-1.0961,-1.0962,-1.0967,-1.0978,-1.0979,-1.0976,-1.0976,-1.0977,-1.0977,0,0,0,0,0,0,0,-1.089,-1.0893,-1.092,-1.0919,-1.0921,-1.0923,-1.0926,-1.0934,-1.0949,-1.0939,-1.094,-1.0943,-1.0961,-1.0966,-1.0967,-1.0979,-1.0976,-1.0977,-1.0977,-1.0977,-1.0993,-1.0993,0,0,0,0,0,0,-1.0888,-1.0892,-1.0919,-1.092,-1.0906,-1.0924,-1.0927,-1.0933,-1.0949,-1.0951,-1.0943,-1.0944,-1.0964,-1.0966,-1.0968,-1.0973,-1.0977,-1.0978,-1.0978,-1.0993,-1.0993,-1.0993,0,0,0,0,0,0,-1.0887,-1.089,-1.0918,-1.0906,-1.091,-1.0924,-1.0931,-1.0933,-1.0938,-1.0951,-1.0954,-1.0945,-1.0964,-1.0967,-1.0974,-1.0974,-1.0978,-1.0979,-1.0993,-1.0993,-1.0993,-1.0982,0,0,0,0,0,0,-1.0886,-1.089,-1.0892,-1.0906,-1.0911,-1.0925,-1.0931,-1.0934,-1.0939,-1.0941,-1.0954,-1.0956,-1.0965,-1.0973,-1.0975,-1.0975,-1.0979,-1.0993,-1.0993,-1.0993,-1.0983,-1.0982,-1.0981,0,0,0,0,0,-1.0884,-1.0888,-1.0892,-1.0895,-1.0914,-1.0925,-1.0927,-1.0937,-1.0939,-1.0941,-1.095,-1.0956,-1.0973,-1.0974,-1.0976,-1.0976,-1.0994,-1.0993,-1.0993,-1.0983,-1.0982,-1.0981,0,0,0,0,0,0,-1.0873,-1.089,-1.0895,-1.0903,-1.0912,-1.0927,-1.093,-1.0936,-1.0944,-1.0944,-1.0956,-1.0959,-1.0965,-1.0971,-1.0971,-1.098,-1.0984,-1.0984,-1.0975,-1.0974,-1.0973,-1.0972,-1.098,0,0,0,0,0,-1.0871,-1.0879,-1.0893,-1.0899,-1.0904,-1.0916,-1.0921,-1.0927,-1.0937,-1.0941,-1.095,-1.0959,-1.0966,-1.0971,-1.0978,-1.0983,-1.0986,-1.0984,-1.0984,-1.0983,-1.0983,-1.0985,-1.0984,-1.0992,-1.0992,-1.0992,0,0,-1.0868,-1.0879,-1.0883,-1.0897,-1.0905,-1.0912,-1.0919,-1.0926,-1.0931,-1.0942,-1.0949,-1.0956,-1.0966,-1.0972,-1.0975,-1.0978,-1.0981,-1.0982,-1.0982,-1.0982,-1.0984,-1.0984,-1.0983,-1.0992,-1.0992,-1.0992,0,0,-1.0866,-1.0875,-1.0881,-1.0888,-1.09,-1.0907,-1.0908,-1.0922,-1.0927,-1.0934,-1.0942,-1.0947,-1.096,-1.0967,-1.0972,-1.097,-1.0976,-1.0972,-1.0967,-1.0969,-1.0968,-1.0968,-1.0966,-1.0966,-1.0972,-1.0972,-1.0972,0,-1.0861,-1.0872,-1.0883,-1.0889,-1.0894,-1.0904,-1.0909,-1.0916,-1.0929,-1.0932,-1.0935,-1.095,-1.0958,-1.0965,-1.0964,-1.0968,-1.0969,-1.0971,-1.0968,-1.0967,-1.0967,-1.0965,-1.0965,-1.0971,-1.0972,-1.0972,-1.0972,0,-1.0864,-1.0872,-1.0874,-1.0887,-1.0893,-1.0898,-1.0909,-1.0913,-1.0919,-1.0926,-1.0932,-1.0942,-1.0951,-1.0953,-1.0959,-1.096,-1.0961,-1.0966,-1.097,-1.0965,-1.0964,-1.0964,-1.0971,-1.0971,-1.0971,-1.0971,0,0,-1.0857,-1.0874,-1.0875,-1.088,-1.0892,-1.0898,-1.0903,-1.0912,-1.0915,-1.0923,-1.0927,-1.0937,-1.094,-1.0946,-1.0952,-1.0954,-1.095,-1.0958,-1.0958,-1.0956,-1.0951,-1.0948,-1.0947,-1.0954,-1.0954,-1.0954,-1.095,0,-1.0856,-1.0866,-1.0875,-1.0882,-1.0888,-1.0897,-1.0901,-1.0909,-1.0915,-1.092,-1.0927,-1.0933,-1.0938,-1.0941,-1.0943,-1.0951,-1.095,-1.0951,-1.0957,-1.0957,-1.0954,-1.0947,-1.0943,-1.0939,-1.095,-1.095,-1.095,0,-1.0857,-1.0864,-1.0872,-1.0882,-1.0885,-1.0889,-1.0897,-1.0902,-1.091,-1.0915,-1.092,-1.0927,-1.0931,-1.0935,-1.0941,-1.0942,-1.0945,-1.0948,-1.0948,-1.0949,-1.0953,-1.0946,-1.0938,-1.0937,-1.0949,-1.0949,-1.0949,0,-1.085,-1.0862,-1.0867,-1.0871,-1.0884,-1.0886,-1.0891,-1.09,-1.0904,-1.091,-1.0913,-1.092,-1.0924,-1.0929,-1.0936,-1.0939,-1.0941,-1.0946,-1.0944,-1.0944,-1.0944,-1.0944,-1.0936,-1.0947,-1.0947,-1.0947,-1.0947,0,-1.0848,-1.0852,-1.0864,-1.0867,-1.0871,-1.0881,-1.0884,-1.089,-1.0897,-1.0901,-1.0909,-1.0912,-1.0922,-1.0927,-1.0933,-1.0936,-1.0938,-1.0941,-1.0942,-1.094,-1.0939,-1.0942,-1.0942,-1.0947,-1.0947,-1.0947,-1.0947,0,-1.0841,-1.0849,-1.0855,-1.0866,-1.0869,-1.0871,-1.088,-1.0883,-1.089,-1.0894,-1.0896,-1.0905,-1.0911,-1.0919,-1.0927,-1.0931,-1.0933,-1.0936,-1.093,-1.0931,-1.0928,-1.0928,-1.0921,-1.092,-1.0932,-1.0932,-1.0932,0,-1.0839,-1.0842,-1.0853,-1.0856,-1.0861,-1.0866,-1.087,-1.0878,-1.0882,-1.0891,-1.0892,-1.0898,-1.0903,-1.0911,-1.0918,-1.0924,-1.0927,-1.0924,-1.0928,-1.0925,-1.0926,-1.0925,-1.0925,-1.0923,-1.0922,-1.0922,-1.0922,0,-1.0834,-1.0838,-1.0844,-1.085,-1.0854,-1.086,-1.0866,-1.0868,-1.0878,-1.0881,-1.0887,-1.0891,-1.0898,-1.0903,-1.091,-1.0914,-1.0919,-1.0921,-1.0921,-1.0918,-1.0914,-1.0915,-1.0927,-1.0921,-1.0921,-1.0921,-1.0921,-1.0921,-1.0829,-1.0832,-1.0839,-1.0845,-1.085,-1.0855,-1.0858,-1.0864,-1.0869,-1.0875,-1.088,-1.0885,-1.0891,-1.09,-1.0904,-1.0907,-1.091,-1.091,-1.091,-1.0909,-1.0908,-1.0914,-1.0909,-1.0909,-1.0909,-1.0909,-1.0909,0,-1.0825,-1.0829,-1.0834,-1.0842,-1.0846,-1.085,-1.0856,-1.0859,-1.0863,-1.0869,-1.0874,-1.0879,-1.0884,-1.0891,-1.0896,-1.0897,-1.0899,-1.0898,-1.0898,-1.0898,-1.0906,-1.0905,-1.0896,-1.0896,-1.0896,-1.0896,-1.0896,-1.0896,-1.0823,-1.0827,-1.0831,-1.0837,-1.0841,-1.0846,-1.0849,-1.0853,-1.0858,-1.0863,-1.0867,-1.0872,-1.0877,-1.0883,-1.0887,-1.0889,-1.089,-1.0887,-1.089,-1.0897,-1.0898,-1.0899,-1.0899,-1.0888,-1.0888,-1.0882,-1.0882,-1.0882]}]]